Flag for Djibouti Weather past 2 weeks in Djibouti, Djibouti

Now
73 °F

Passing clouds.


Feels Like: 75 °F
Forecast: 69 / 85 °F
Wind: 5 mph from Northeast

Location: Aden

Current Time: Mar 1, 2015 at 3:51:03 AM

Latest Report: Mar 1, 2015 at 3:00 AM


Visibility: 4 mi

Pressure: 29.86 "Hg

Humidity: 74%

Dew point: 64 °F

Location of DjiboutiLocation

Historic Weather in Djibouti — Graph

°F

Djibouti temperature yesterday

Maximum temperature yesterday: 82 °F (at 1:00 PM)
Minimum temperature yesterday: 73 °F (at 5:00 AM)
Average temperature yesterday: 78 °F

Past Weeks' High & Low Weather Summary

 TemperatureHumidityPressure
High84 °F (Feb 18, 2:00 PM)78% (Feb 17, 6:00 AM)30.04 "Hg (Feb 17, 6:00 AM)
Low70 °F (Feb 16, 7:00 AM)48% (Feb 14, 12:00 PM)27.18 "Hg (Feb 18, 12:00 PM)
Average78 °F65%29.92 "Hg
* Reported Feb 14 2:00 AM — Mar 1 2:00 AM, Djibouti, Weather by CustomWeather, © 2015

Note: Actual official high and low records may vary slightly from our data, if they occured in-between our weather recording intervals... More about our weather records

Advertising

Djibouti weather history for previous 24 hours

 ConditionsComfort  
Time TempWeatherWind HumidityBarometerVisibility
2:00 AM
Sun, Mar 1
73 °FPassing clouds.6 mph74%29.89 "Hg4 mi
1:00 AM75 °FPassing clouds.5 mph74%29.89 "Hg4 mi
12:00 AM75 °FPassing clouds.3 mph74%29.92 "Hg4 mi
11:00 PM
Sat, Feb 28
75 °FPassing clouds.2 mph74%29.92 "Hg4 mi
10:00 PM77 °FPassing clouds.3 mph69%29.92 "Hg4 mi
9:00 PM77 °FPassing clouds.2 mph69%29.92 "Hg4 mi
8:00 PM77 °FPassing clouds.3 mph65%29.89 "Hg4 mi
7:00 PM79 °FPassing clouds.5 mph65%29.89 "Hg4 mi
6:00 PM79 °FScattered clouds.7 mph65%29.86 "Hg4 mi
5:00 PM81 °FScattered clouds.10 mph66%29.86 "Hg4 mi
4:00 PM81 °FScattered clouds.9 mph62%29.86 "Hg4 mi
3:00 PM81 °FScattered clouds.12 mph74%29.86 "Hg4 mi
2:00 PM81 °FScattered clouds.12 mph62%29.86 "Hg4 mi
1:00 PM82 °FScattered clouds.10 mph62%29.89 "Hg4 mi
12:00 PM81 °FScattered clouds.9 mph62%29.92 "Hg4 mi
11:00 AM81 °FPassing clouds.9 mph66%29.95 "Hg4 mi
10:00 AM81 °FScattered clouds.9 mph66%29.98 "Hg4 mi
9:00 AM79 °FScattered clouds.6 mph74%29.98 "Hg4 mi
8:00 AM75 °FScattered clouds.5 mph74%29.95 "Hg3 mi
7:00 AM73 °FScattered clouds.3 mph78%29.95 "Hg3 mi
6:00 AM73 °FPassing clouds.3 mph78%29.92 "Hg4 mi
5:00 AM73 °FPassing clouds.3 mph74%29.89 "Hg4 mi
4:00 AM75 °FPassing clouds.3 mph74%29.89 "Hg4 mi
3:00 AM77 °FPassing clouds.7 mph74%29.89 "Hg4 mi
Weather by CustomWeather, © 2015

See weather overviewHow to use our weather pages